Погода в Березно

Украина / Ровненская область     50°59′52″N   26°44′25″E
темп.,
°C
ветер,
м/с
пор.,
м/с
влажн.,
%
обл.,
%
осадки,
мм/ч
давл.,
гПа
погр.,
м
17 апреля, сб
сб1700:00+4зюз3498100 0.0 1015218
03:00+4зюз2397100 0.0 1016156
06:00+4зюз2398100 0.1 1016168
09:00+4зюз3497100 0.4 1017220
12:00+6з2390100 0.2 1018380
15:00+8з2281100 0.4 1019566
18:00+8зюз3486100 0.1 1019305
21:00+5зюз34958 0.1 102064
18 апреля, вс
вс1800:00+3зюз349621 0.0 102077
03:00+3з36965 0.0 1019108
06:00+2з38977 0.0 1019153
09:00+7зсз578544 0.0 1018358
12:00+7зсз3791100 0.5 1017353
15:00+10с238352 0.9 1018527
18:00+12всв345919 0.2 10171282
21:00+7юв35815 0.2 101882
19 апреля, пн
пн1900:00+4вюв348931 0.0 101967
03:00+3в22895 0.0 101919
06:00+3всв22915 0.0 101921
09:00+7св35795 0.0 1019390
12:00+10св4564100 0.1 10171357
15:00+9св4565100 0.3 1017906
18:00+9св3668100 0.0 1016605
21:00+7св2583100 0.1 1016191
20 апреля, вт
вт2000:00+6ссв3790100 0.2 1014299
03:00+6ссв3794100 0.3 1012295
06:00+6ссв3794100 0.1 1011449
09:00+6с5790100 0.2 1010557
12:00+8с6774100 0.3 10101021
15:00+7ссз578798 0.6 1009728
18:00+7ссз578394 0.1 1008854
21:00+6сз4885100 0.2 1008411
21 апреля, ср
ср2100:00+6сз4890100 0.1 1008439
03:00+5зсз598486 0.1 1008558
06:00+4зюз489183 0.0 1008267
09:00+7з587765 0.0 1009736
12:00+11з685898 0.8 10091489
15:00+12з785299 1.3 10101724
18:00+12зюз576053 0.4 10101329
21:00+8юз35805 0.6 101271